{"data":{"norad_id":66504,"epoch":"2026-09-20T21:54:59.581440Z","epoch_age_seconds":53590,"freshness":"FRESH","line1":"1 66504U 25263V   26263.91318960  .00012390  00000+0  45898-3 0  9996","line2":"2 66504  43.0031 331.8545 0001403 269.2122  90.8569 15.27582673 48718","mean_motion":15.27582673,"eccentricity":0.0001403,"inclination_deg":43.0031,"raan_deg":331.8545,"arg_perigee_deg":269.2122,"mean_anomaly_deg":90.8569,"bstar":0.00045898,"rev_number":4871,"period_min":94.266583763483,"perigee_km":482.07846884139,"apogee_km":484.00371541404,"semimajor_km":6861.1780921277,"source":"CELESTRAK","updated_at":"2026-09-21T09:00:35.923156Z"}}